Regional Weather Roundup
Issued by NWS

Home | Current Version | Previous Version | Text Only | Print | Product List | Glossary Off
Versions: 1 2 3 4 5 6 7 8 9 10 11 12 13 14 15 16 17 18 19 20 21 22 23 24 25 26 27 28

000
ASUS45 KSLC 261910
RWRUT

UTAH REGIONAL WEATHER ROUNDUP
NATIONAL WEATHER SERVICE SALT LAKE CITY UT
100 PM MDT MON SEP 26 2016

UTZ001>011-023>025-262000-

NORTHERN UTAH

CITY           SKY/WX    TMP DP  RH WIND       PRES   REMARKS
BRIGHAM CITY     N/A     66  44  44 W3        30.39F
DUGWAY         SUNNY     64  49  58 NW6       30.41F
HILL AFB       SUNNY     65  43  45 NW6       30.40F
LOGAN          SUNNY     63  45  51 MISG      30.40F
OGDEN          SUNNY     66  47  50 VRB5      30.38F
PROVO AIRPORT  SUNNY     61  45  55 W7        30.41F
SALT LAKE CITY MOSUNNY   68  46  45 NW6       30.38F
VERNAL         SUNNY     59  43  55 CALM      30.45F
WENDOVER       SUNNY     64  43  45 CALM      30.40F
HEBER CITY     SUNNY     63  36  36 CALM      30.41F
WEST JORDAN    SUNNY     66  44  43 CALM      30.40F

$$

UTZ012>022-026-027-262000-

SOUTHERN/CENTRAL UTAH

CITY           SKY/WX    TMP DP  RH WIND       PRES   REMARKS
BLANDING       SUNNY     67  34  29 CALM      30.49F
BRYCE CANYON   SUNNY     62  30  29 S7        30.51F
CEDAR CITY     SUNNY     68  34  28 VRB6      30.40F
DELTA          SUNNY     64  39  39 NW3       30.40F
MILFORD        SUNNY     69  37  30 NE10G17   30.39F
MOAB/CYNLANDS  SUNNY     70  35  27 CALM      30.37F
PRICE          SUNNY     65  35  33 CALM      30.44F
ST GEORGE      CLEAR     77  36  22 SW5       30.27F

$$

REGIONAL REPORTS     COLORADO/ARIZONA

CITY           SKY/WX    TMP DP  RH WIND       PRES   REMARKS
CRAIG, CO      SUNNY     66  30  26 N5        30.46F
GRAND JUNCTION SUNNY     68  36  30 CALM      30.39F
RIFLE          SUNNY     65  37  35 NW5       30.42F
MONTROSE       SUNNY     65  39  38 N6        30.44F
CORTEZ         SUNNY     69  36  29 SW6       30.41F
PAGE, AZ       SUNNY     72  33  24 NE9       30.35F
GRAND CANYON   SUNNY     68  36  30 NE14G21   30.44F
KINGMAN        MOSUNNY   86  34  15 NW5       30.20F
FLAGSTAFF      SUNNY     64  35  34 E15G29    30.43F

$$

REGIONAL REPORTS    NEVADA/IDAHO/WYOMING

CITY           SKY/WX    TMP DP  RH WIND       PRES   REMARKS
LAS VEGAS, NV  SUNNY     86  28  12 NE12G20   30.17F
ELY            SUNNY     65  32  29 VRB3      30.44F
ELKO           SUNNY     72  37  28 E8        30.36F
POCATELLO, ID  SUNNY     67  40  37 NE7       30.41F
BURLEY         SUNNY     68  43  40 NE10      30.37F
EVANSTON, WY   SUNNY     62  35  36 W5        30.49F
ROCK SPRINGS   SUNNY     61  37  41 S5        30.47F

$$




USA.gov is the U.S. government's official web portal to all federal, state and local government web resources and services.